Regional Weather Roundup
Issued by NWS Spokane, WA

Home | Current Version | Previous Version | Text Only | Print | Product List | Glossary On
Versions: 1 2 3 4 5 6 7 8 9 10 11 12 13 14 15 16 17 18 19 20 21 22 23 24 25 26 27 28 29 30 31 32 33 34 35 36 37 38 39 40 41 42 43 44 45 46 47 48 49 50
784
NZUS01 KOTX 140210
RWROTX
EASTERN WASHINGTON/NORTHERN IDAHO ROUNDUP
NATIONAL WEATHER SERVICE, SPOKANE WA
600 PM PST SAT FEB 13 2016

Note: "fair" indicated few or no clouds below 12,000 feet with no
significant weather and/or obstructions to visibility.

...NORTHEAST WASHINGTON AND NORTHERN IDAHO PANHANDLE...

CITY           SKY/WX    TMP DP  RH WIND       PRES   REMARKS
SPOKANE INTL   LGT RAIN  40  34  79 SW14      30.15F
SPOKANE DOWNTO LGT RAIN  42  34  73 W6        30.17F
COEUR D ALENE  CLOUDY    41  32  70 SW14G21   30.14R
DEER PARK      LGT RAIN  38  33  82 SW7       30.16S
SANDPOINT      LGT RAIN  39  32  75 S6        30.14R
BONNERS FERRY  CLOUDY    39  34  81 S7        30.10F

...SOUTHEAST WASHINGTON AND SOUTHERN IDAHO PANHANDLE...

CITY           SKY/WX    TMP DP  RH WIND       PRES   REMARKS
WALLA WALLA    LGT RAIN  48  36  63 W8        30.20S
PULLMAN/MOSCOW LGT RAIN  41  33  73 SW6       30.18F
LEWISTON       CLOUDY    48  32  53 S5        30.18F
LOWELL           N/A     41  39  93 CALM      30.24S

...COLUMBIA BASIN...

CITY           SKY/WX    TMP DP  RH WIND       PRES   REMARKS
EPHRATA        LGT RAIN  41  39  93 S10       30.13F
MOSES LAKE     LGT RAIN  43  39  86 S7        30.15F
TRI CITIES     LGT RAIN  47  41  80 SW5       30.22R
HERMISTON      LGT RAIN  49  40  71 VRB3      30.20R
PENDLETON      LGT RAIN  46  38  73 SW10G22   30.18R

...EAST SLOPES CASCADES...

CITY           SKY/WX    TMP DP  RH WIND       PRES   REMARKS
THE DALLES     LGT RAIN  47  42  83 NW7       30.19F
YAKIMA         CLOUDY    47  34  60 S15G29    30.11F
ELLENSBURG     LGT RAIN  39  34  82 CALM      30.10F
WENATCHEE      LGT RAIN  39  34  82 NE3       30.10F
OMAK           CLOUDY    36  31  82 S10       30.10F

...SOUTHERN BRITISH COLUMBIA...

CITY           SKY/WX    TMP DP  RH WIND       PRES   REMARKS
PENTICTON      MOCLDY    39  34  81 S15       30.03F
CRANBROOK      CLOUDY    37  28  70 S13       30.00S

...WESTERN MONTANA...

CITY           SKY/WX    TMP DP  RH WIND       PRES   REMARKS
MISSOULA       CLOUDY    41  26  55 CALM      30.16S

...NEIGHBORING CITIES...

CITY           SKY/WX    TMP DP  RH WIND       PRES   REMARKS
SEATTLE        LGT RAIN  44  41  89 S9        30.09F
CALGARY        MOCLDY    41  16  36 W12G18    29.80S



USA.gov is the U.S. government's official web portal to all federal, state and local government web resources and services.